Location: Observatory
(52.1446°N, 0.4624°W)
Time: 05:23:12
(UTC+00:00)

ISS - Pass Details

Date: 22 January 2021
Orbit: 418 x 421 km, 51.6° (Epoch: 23 January)

Event Time Altitude Azimuth Distance (km) Brightness Sun altitude
Rises 17:40:20 0° 212° (SSW) 2,360 0.9 -10.4°
Reaches altitude 10° 17:42:46 10° 195° (SSW) 1,500 -0.5 -10.7°
Maximum altitude 17:45:20 20° 145° (SE) 1,025 -2.0 -11.1°
Enters shadow 17:47:08 14° 106° (ESE) 1,285 -1.8 -11.4°
